Miscellaneous Local Product
Issued by NWS Hastings, NE

Home | Current Version | Previous Version | Text Only | Print | Product List | Glossary Off
Versions: 1 2 3 4 5 6 7 8 9 10 11 12 13 14 15 16 17 18 19 20 21 22 23 24 25 26 27 28 29 30 31 32 33 34 35 36 37 38 39 40 41 42 43 44 45 46 47 48 49 50

000
AXUS43 KGID 281502
MISGRI

GID CWA HOURLY WEATHER ROUNDUP
NATIONAL WEATHER SERVICE HASTINGS NE
900 AM CST FRI NOV 28 2014

NOTE: "FAIR" INDICATES FEW OR NO CLOUDS BELOW 12,000 FEET WITH NO
SIGNIFICANT WEATHER AND/OR OBSTRUCTIONS TO VISIBILITY.

...SOUTH CENTRAL NEBRASKA...

CITY           SKY/WX    TMP DP  RH WIND       PRES   REMARKS
GRAND ISLAND   MOSUNNY   35  25  66 SW6       29.82F WCI  30
HASTINGS       SUNNY     35  26  69 SW5       29.82F WCI  31
KEARNEY        MOSUNNY   36  25  64 SW8       29.84F WCI  29
ORD            PTSUNNY   22  18  85 CALM      29.79F
YORK           MOSUNNY   30  25  80 SW8       29.83S WCI  23
AURORA         SUNNY     29  22  78 SW3       29.82F
LEXINGTON      MOSUNNY   26  22  88 W5        29.84S WCI  20
HOLDREGE       PTSUNNY   39  27  61 SW3       29.84F
HEBRON         MOSUNNY   31  24  74 SW3       29.88S

...NEBRASKA PANHANDLE...

CITY           SKY/WX    TMP DP  RH WIND       PRES   REMARKS
CHADRON        CLOUDY   N/A N/A N/A SW8       29.77S
ALLIANCE       PTCLDY    41  26  55 SW7       29.80F
SCOTTSBLUFF    PTCLDY    46  27  47 NW12      29.83R
SIDNEY         PTCLDY    50  22  33 W15       29.88S

...WESTERN AND NORTH CENTRAL NEBRASKA...

CITY           SKY/WX    TMP DP  RH WIND       PRES   REMARKS
VALENTINE      CLEAR     36  29  75 SW8       29.71F WCI  30
AINSWORTH      MOSUNNY   41  29  62 SW12      29.73F
ONEILL         MOSUNNY   33  28  83 S3        29.75F
BROKEN BOW     MOSUNNY   38  28  67 CALM      29.79F
IMPERIAL       MOSUNNY   37  24  59 W10       29.86F WCI  30
NORTH PLATTE   MOSUNNY   30  26  85 NW3       29.84F
MCCOOK         SUNNY     33  24  69 W7        29.87F WCI  27

...EASTERN NEBRASKA...

CITY           SKY/WX    TMP DP  RH WIND       PRES   REMARKS
NORFOLK        MOSUNNY   29  22  75 SW3       29.79S
SO SIOUX CITY  MOSUNNY   28  22  78 SE9       29.85F WCI  19
TEKAMAH        SUNNY     29  23  78 S8        29.86S WCI  21
COLUMBUS       SUNNY     28  19  69 SW5       29.83F WCI  23
ALBION         MOSUNNY   26  19  76 CALM      29.79F
OMAHA EPPLEY   MOSUNNY   31  24  75 S10       29.89F WCI  22
OFFUTT AFB     SUNNY     31  24  78 SE6       29.88S WCI  25
MILLARD        SUNNY     29  24  82 SE3       29.88F
LINCOLN        SUNNY     31  24  75 S5        29.88F WCI  26
NEBRASKA CITY  SUNNY     31  23  72 S10       29.89F WCI  22
BEATRICE       SUNNY     32  26  77 S8        29.88F WCI  25
FALLS CITY     SUNNY     35  25  66 S15       29.91F WCI  25

...NORTHERN KANSAS...

CITY           SKY/WX    TMP DP  RH WIND       PRES   REMARKS
GOODLAND       MOSUNNY   49  20  31 SW8       29.90F
HILL CITY      SUNNY     40  26  57 SW5       29.88F
NORTON         SUNNY     39  23  52 SW7       29.86F WCI  34
PHILLIPSBURG   SUNNY     34  27  75 NW3       29.88F
SMITH CENTER   SUNNY     32  23  69 W5        29.89R WCI  27
BELOIT         SUNNY     34  27  75 SE3       29.88F
HAYS           MOSUNNY   36  23  60 W6        29.90S WCI  31
RUSSELL        MOSUNNY   40  29  64 SW5       29.88S
CONCORDIA      MOSUNNY   40  29  64 SW5       29.88F
SALINA         SUNNY     41  29  62 S16       29.93S
TOPEKA         SUNNY     40  26  57 S10G18    29.97F WCI  33



USA.gov is the U.S. government's official web portal to all federal, state and local government web resources and services.